When you browse on this site, cookies collect data to enhance your experience and personalize the content and advertising you see.
Visit our Privacy Policy to learn more. By continuing to use the site, you agree to this use of cookies and data.
  • en France
  • Liste des pays
  • À 7 jours
  • Température de l'eau
  • Carte météo
  • Widgets météo
  • user-avatar
    Se connecter

    Météo par heure à Carlisle

    Ce jour, 16 Septembre, Lundi

    Heure Température Précipitation Vent Pression Humidité
    00:00 +8°C° 0 mm 0 m/s 764 mmHg 92%
    01:00 +7°C° 0 mm 0 m/s 764 mmHg 92%
    02:00 +7°C° 0 mm 0 m/s 764 mmHg 92%
    03:00 +7°C° 0 mm 0 m/s 764 mmHg 92%
    04:00 +6°C° 0 mm 0 m/s 764 mmHg 92%
    05:00 +6°C° 0 mm 0 m/s 764 mmHg 92%
    06:00 +6°C° 0 mm 0 m/s 764 mmHg 92%
    07:00 +9°C° 0 mm 1 m/s 764 mmHg 88%
    08:00 +10°C° 0 mm 1 m/s 764 mmHg 85%
    09:00 +12°C° 0 mm 1 m/s 764 mmHg 81%
    10:00 +13°C° 0 mm 2 m/s 765 mmHg 79%
    11:00 +12°C° 0 mm 3 m/s 765 mmHg 77%
    12:00 +13°C° 0 mm 3 m/s 765 mmHg 75%
    13:00 +13°C° 0 mm 3 m/s 765 mmHg 74%
    14:00 +13°C° 0 mm 3 m/s 765 mmHg 74%
    15:00 +13°C° 0 mm 4 m/s 765 mmHg 74%
    16:00 +13°C° 0 mm 3 m/s 765 mmHg 76%
    17:00 +12°C° 0 mm 3 m/s 765 mmHg 79%
    18:00 +12°C° 0 mm 3 m/s 765 mmHg 81%
    19:00 +10°C° 0 mm 3 m/s 765 mmHg 84%
    20:00 +9°C° 0 mm 3 m/s 765 mmHg 88%
    21:00 +8°C° 0 mm 2 m/s 766 mmHg 91%
    22:00 +8°C° 0 mm 2 m/s 766 mmHg 92%
    23:00 +7°C° 0 mm 2 m/s 766 mmHg 92%

    Demain, 17 Septembre, Mardi

    Heure Température Précipitation Vent Pression Humidité
    00:00 +7°C° 0 mm 2 m/s 766 mmHg 93%
    01:00 +7°C° 0 mm 2 m/s 766 mmHg 93%
    02:00 +7°C° 0 mm 2 m/s 766 mmHg 93%
    03:00 +7°C° 0 mm 2 m/s 766 mmHg 93%
    04:00 +6°C° 0 mm 2 m/s 766 mmHg 93%
    05:00 +6°C° 0 mm 2 m/s 766 mmHg 93%
    06:00 +6°C° 0 mm 2 m/s 767 mmHg 93%
    07:00 +8°C° 0 mm 2 m/s 767 mmHg 88%
    08:00 +9°C° 0 mm 3 m/s 767 mmHg 83%
    09:00 +11°C° 0 mm 3 m/s 767 mmHg 78%
    10:00 +12°C° 0 mm 3 m/s 767 mmHg 73%
    11:00 +13°C° 0 mm 3 m/s 768 mmHg 68%
    12:00 +14°C° 0 mm 2 m/s 768 mmHg 64%
    13:00 +15°C° 0 mm 2 m/s 768 mmHg 64%
    14:00 +15°C° 0 mm 2 m/s 768 mmHg 64%
    15:00 +15°C° 0 mm 2 m/s 768 mmHg 65%
    16:00 +14°C° 0 mm 2 m/s 768 mmHg 71%
    17:00 +13°C° 0 mm 2 m/s 768 mmHg 77%
    18:00 +12°C° 0 mm 1 m/s 768 mmHg 84%
    19:00 +11°C° 0 mm 1 m/s 768 mmHg 85%
    20:00 +10°C° 0 mm 1 m/s 769 mmHg 87%
    21:00 +8°C° 0 mm 0 m/s 769 mmHg 89%
    22:00 +9°C° 0 mm 1 m/s 769 mmHg 87%
    23:00 +10°C° 0 mm 1 m/s 769 mmHg 86%

    Après-demain, 18 Septembre, Mercredi

    Heure Température Précipitation Vent Pression Humidité
    00:00 +10°C° 0 mm 1 m/s 769 mmHg 84%
    01:00 +10°C° 0 mm 1 m/s 769 mmHg 85%
    02:00 +10°C° 0 mm 1 m/s 769 mmHg 85%
    03:00 +10°C° 0 mm 1 m/s 768 mmHg 85%
    04:00 +9°C° 0 mm 2 m/s 768 mmHg 88%
    05:00 +9°C° 0 mm 2 m/s 768 mmHg 90%
    06:00 +8°C° 0 mm 2 m/s 768 mmHg 92%
    07:00 +10°C° 0 mm 3 m/s 768 mmHg 89%
    08:00 +11°C° 0 mm 3 m/s 768 mmHg 87%
    09:00 +13°C° 0 mm 4 m/s 768 mmHg 84%
    10:00 +14°C° 0 mm 4 m/s 768 mmHg 82%
    11:00 +15°C° 0 mm 4 m/s 768 mmHg 80%
    12:00 +15°C° 0 mm 4 m/s 768 mmHg 78%
    13:00 +17°C° 0 mm 4 m/s 768 mmHg 79%
    14:00 +17°C° 0 mm 4 m/s 768 mmHg 80%
    15:00 +17°C° 0 mm 4 m/s 768 mmHg 82%
    16:00 +16°C° 0 mm 3 m/s 768 mmHg 85%
    17:00 +14°C° 0 mm 3 m/s 768 mmHg 89%
    18:00 +14°C° 0 mm 2 m/s 768 mmHg 93%
    19:00 +14°C° 0 mm 2 m/s 769 mmHg 93%
    20:00 +13°C° 0 mm 1 m/s 769 mmHg 94%
    21:00 +12°C° 0 mm 1 m/s 769 mmHg 95%
    22:00 +12°C° 0 mm 1 m/s 769 mmHg 95%
    23:00 +12°C° 0 mm 1 m/s 769 mmHg 95%

    19 Septembre, Jeudi

    Heure Température Précipitation Vent Pression Humidité
    00:00 +11°C° 0 mm 1 m/s 769 mmHg 95%
    01:00 +10°C° 0 mm 0 m/s 769 mmHg 95%
    02:00 +10°C° 0 mm 0 m/s 770 mmHg 95%
    03:00 +10°C° 0 mm 0 m/s 770 mmHg 95%
    04:00 +10°C° 0 mm 0 m/s 770 mmHg 95%
    05:00 +9°C° 0 mm 0 m/s 770 mmHg 95%
    06:00 +9°C° 0 mm 0 m/s 770 mmHg 95%
    07:00 +11°C° 0 mm 0 m/s 770 mmHg 92%
    08:00 +13°C° 0 mm 0 m/s 770 mmHg 89%
    09:00 +14°C° 0 mm 0 m/s 771 mmHg 86%
    10:00 +16°C° 0 mm 1 m/s 771 mmHg 83%
    11:00 +18°C° 0 mm 1 m/s 771 mmHg 80%
    12:00 +19°C° 0 mm 1 m/s 771 mmHg 77%
    13:00 +19°C° 0 mm 1 m/s 771 mmHg 78%
    14:00 +19°C° 0 mm 1 m/s 770 mmHg 79%
    15:00 +19°C° 0 mm 1 m/s 770 mmHg 80%
    16:00 +18°C° 0 mm 1 m/s 770 mmHg 84%
    17:00 +16°C° 0 mm 1 m/s 770 mmHg 88%
    18:00 +14°C° 0 mm 1 m/s 770 mmHg 93%
    19:00 +14°C° 0 mm 1 m/s 770 mmHg 93%
    20:00 +13°C° 0 mm 1 m/s 770 mmHg 94%
    21:00 +12°C° 0 mm 1 m/s 770 mmHg 94%
    22:00 +12°C° 0 mm 1 m/s 770 mmHg 94%
    23:00 +12°C° 0 mm 1 m/s 770 mmHg 95%

    20 Septembre, Vendredi

    Heure Température Précipitation Vent Pression Humidité
    00:00 +11°C° 0 mm 1 m/s 769 mmHg 95%
    01:00 +11°C° 0 mm 1 m/s 769 mmHg 95%
    02:00 +11°C° 0 mm 1 m/s 769 mmHg 95%
    03:00 +11°C° 0 mm 1 m/s 769 mmHg 95%
    04:00 +11°C° 0 mm 1 m/s 768 mmHg 95%
    05:00 +11°C° 0 mm 1 m/s 768 mmHg 95%
    06:00 +11°C° 0 mm 1 m/s 768 mmHg 95%
    07:00 +13°C° 0 mm 2 m/s 767 mmHg 92%
    08:00 +14°C° 0 mm 2 m/s 767 mmHg 90%
    09:00 +16°C° 0 mm 2 m/s 767 mmHg 87%
    10:00 +17°C° 0 mm 2 m/s 767 mmHg 84%
    11:00 +18°C° 0 mm 3 m/s 767 mmHg 81%
    12:00 +19°C° 0 mm 3 m/s 767 mmHg 78%
    13:00 +19°C° 0 mm 3 m/s 766 mmHg 78%
    14:00 +19°C° 0 mm 3 m/s 765 mmHg 78%
    15:00 +19°C° 0 mm 3 m/s 765 mmHg 77%
    16:00 +18°C° 0 mm 2 m/s 764 mmHg 82%
    17:00 +17°C° 0 mm 2 m/s 764 mmHg 86%
    18:00 +16°C° 0 mm 1 m/s 763 mmHg 91%
    19:00 +15°C° 0 mm 2 m/s 763 mmHg 91%
    20:00 +14°C° 0 mm 2 m/s 763 mmHg 91%
    21:00 +13°C° 0 mm 2 m/s 763 mmHg 90%
    22:00 +13°C° 0 mm 2 m/s 763 mmHg 90%
    23:00 +12°C° 0 mm 2 m/s 762 mmHg 89%

    21 Septembre, Samedi

    Heure Température Précipitation Vent Pression Humidité
    00:00 +10°C° 0 mm 2 m/s 762 mmHg 88%
    01:00 +10°C° 0 mm 2 m/s 761 mmHg 87%
    02:00 +9°C° 0 mm 2 m/s 761 mmHg 85%
    03:00 +9°C° 0 mm 2 m/s 760 mmHg 83%
    04:00 +9°C° 0 mm 2 m/s 760 mmHg 82%
    05:00 +8°C° 0 mm 3 m/s 759 mmHg 81%
    06:00 +8°C° 0 mm 3 m/s 759 mmHg 79%
    07:00 +10°C° 0 mm 3 m/s 758 mmHg 77%
    08:00 +12°C° 0 mm 4 m/s 758 mmHg 74%
    09:00 +14°C° 0 mm 4 m/s 757 mmHg 71%
    10:00 +15°C° 0 mm 4 m/s 757 mmHg 68%
    11:00 +18°C° 0 mm 4 m/s 756 mmHg 65%
    12:00 +19°C° 0 mm 5 m/s 755 mmHg 61%
    13:00 +19°C° 0 mm 4 m/s 755 mmHg 63%
    14:00 +19°C° 0 mm 4 m/s 754 mmHg 65%
    15:00 +20°C° 0 mm 3 m/s 754 mmHg 67%
    16:00 +18°C° 0 mm 3 m/s 754 mmHg 73%
    17:00 +17°C° 0 mm 2 m/s 753 mmHg 79%
    18:00 +16°C° 0 mm 2 m/s 753 mmHg 85%
    19:00 +15°C° 0 mm 2 m/s 753 mmHg 87%
    20:00 +15°C° 0 mm 2 m/s 753 mmHg 89%
    21:00 +14°C° 0 mm 2 m/s 753 mmHg 90%
    22:00 +15°C° 0 mm 2 m/s 753 mmHg 91%
    23:00 +15°C° 0 mm 2 m/s 753 mmHg 92%
    Voir plus